Change the Weather History Date:

Saturday, April 6, 2013

  Actual Average (KGUC) Record (KGUC)
Temperature  
Mean Temperature 49 °F -  
Max Temperature 64 °F 48 °F 60 °F (2002)
Min Temperature 34 °F 21 °F 12 °F (1997)
Degree Days  
Heating Degree Days 16    
Moisture  
Dew Point 16 °F    
Average Humidity 31    
Maximum Humidity 77    
Minimum Humidity 9    
Precipitation  
Precipitation 0.00 in - - ()
Sea Level Pressure  
Sea Level Pressure 30.05 in    
Wind  
Wind Speed 11 mph (West)    
Max Wind Speed 24 mph    
Max Gust Speed 34 mph    
Visibility 10 miles    
Events      
Averages and records for this station are not official NWS values.
T = Trace of Precipitation, MM = Missing Value Source: NWS Daily Summary

Daily Weather History Graph

Daily Weather History Graph

Search for Another Location

Airport or City:

Trip Planner

Search our weather history database for the weather conditions in past years. The results will help you decide how hot, cold, wet, or windy it might be!

Date:

Astronomy

Apr. 06, 2013 Rise Set
Actual Time 6:40 AM MDT 7:32 PM MDT
Civil Twilight 6:14 AM MDT 7:59 PM MDT
Nautical Twilight 5:42 AM MDT 8:31 PM MDT
Astronomical Twilight 5:09 AM MDT 9:04 PM MDT
Moon 4:23 AM MDT (4/6) 4:06 PM MDT (4/6)
Length of Visible Light 13h 45m
Length of Day
12h 51m
Waning Crescent, 14% of the Moon is Illuminated
Apr 6
Waning Crescent
Apr 10
New
Apr 18
First Quarter
Apr 25
Full
May 2
Last Quarter

Hourly Weather History & Observations

Time (MDT) Temp. Windchill Dew Point Humidity Pressure Visibility Wind Dir Wind Speed Gust Speed Precip Events Conditions
12:15 AM 42.4 °F 36.1 °F 35.2 °F 76% 30.09 in 10.0 mi NW 11.5 mph - N/A   Scattered Clouds
12:35 AM 41.9 °F 35.0 °F 35.1 °F 77% 30.07 in 10.0 mi NNW 12.7 mph - N/A   Clear
12:55 AM 41.9 °F 35.4 °F 34.9 °F 76% 30.07 in 10.0 mi NW 11.5 mph - N/A   Clear
1:15 AM 41.5 °F 37.1 °F 34.7 °F 77% 30.07 in 10.0 mi WNW 6.9 mph - N/A   Clear
1:35 AM 42.6 °F 35.2 °F 31.8 °F 66% 30.07 in 10.0 mi West 15.0 mph 21.9 mph N/A   Clear
1:55 AM 42.4 °F 36.5 °F 33.8 °F 71% 30.07 in 10.0 mi NW 10.4 mph - N/A   Clear
6:55 AM 34.2 °F 30.0 °F 27.3 °F 76% 30.08 in 10.0 mi NNE 4.6 mph - N/A   Unknown
7:15 AM 37.2 °F - 27.3 °F 67% 30.09 in 10.0 mi Calm Calm - N/A   Clear
7:35 AM 36.1 °F 29.9 °F 27.1 °F 70% 30.09 in 10.0 mi NNW 8.1 mph - N/A   Clear
7:55 AM 39.2 °F 34.2 °F 27.0 °F 62% 30.09 in 10.0 mi NNW 6.9 mph - N/A   Clear
8:15 AM 42.6 °F 40.9 °F 28.2 °F 57% 30.10 in 10.0 mi NE 3.5 mph - N/A   Clear
8:35 AM 40.5 °F - 28.6 °F 63% 30.11 in 10.0 mi Calm Calm - N/A   Clear
8:55 AM 42.1 °F 40.2 °F 28.4 °F 58% 30.10 in 10.0 mi North 3.5 mph - N/A   Clear
9:15 AM 45.1 °F 43.7 °F 27.5 °F 50% 30.10 in 10.0 mi North 3.5 mph - N/A   Clear
9:35 AM 46.2 °F 42.7 °F 27.7 °F 48% 30.09 in 10.0 mi South 6.9 mph - N/A   Clear
9:55 AM 51.6 °F - 25.0 °F 36% 30.09 in 10.0 mi SSW 12.7 mph 18.4 mph N/A   Clear
10:15 AM 53.6 °F - 24.4 °F 32% 30.08 in 10.0 mi SW 15.0 mph 19.6 mph N/A   Clear
10:35 AM 56.3 °F - 14.5 °F 19% 30.07 in 10.0 mi WSW 15.0 mph 25.3 mph N/A   Clear
10:55 AM 57.7 °F - 14.2 °F 18% 30.07 in 10.0 mi SW 15.0 mph 25.3 mph N/A   Clear
11:15 AM 58.3 °F - 15.1 °F 18% 30.08 in 10.0 mi SW 15.0 mph 28.8 mph N/A   Clear
11:35 AM 57.9 °F - 8.4 °F 14% 30.08 in 10.0 mi SW 18.4 mph 29.9 mph N/A   Clear
11:55 AM 58.1 °F - 11.7 °F 16% 30.08 in 10.0 mi WSW 17.3 mph 32.2 mph N/A   Clear
12:15 PM 59.9 °F - 7.7 °F 13% 30.08 in 10.0 mi SW 24.2 mph 28.8 mph N/A   Clear
12:35 PM 60.1 °F - 7.7 °F 13% 30.08 in 10.0 mi WSW 20.7 mph 29.9 mph N/A   Clear
12:55 PM 59.9 °F - 6.1 °F 12% 30.07 in 10.0 mi WSW 19.6 mph 32.2 mph N/A   Clear
1:15 PM 61.3 °F - 5.0 °F 11% 30.07 in 10.0 mi WSW 17.3 mph 29.9 mph N/A   Clear
1:35 PM 59.9 °F - 6.1 °F 12% 30.07 in 10.0 mi SW 18.4 mph 34.5 mph N/A   Scattered Clouds
1:55 PM 61.7 °F - 10.9 °F 14% 30.07 in 10.0 mi West 17.3 mph 31.1 mph N/A   Scattered Clouds
2:15 PM 61.5 °F - 8.4 °F 12% 30.06 in 10.0 mi WSW 12.7 mph 23.0 mph N/A   Scattered Clouds
2:35 PM 62.2 °F - 5.2 °F 10% 30.05 in 10.0 mi West 13.8 mph 23.0 mph N/A   Clear
2:55 PM 60.6 °F - 2.7 °F 10% 30.04 in 10.0 mi West 17.3 mph 27.6 mph N/A   Mostly Cloudy
3:15 PM 63.7 °F - 4.1 °F 9% 30.03 in 10.0 mi WSW 15.0 mph 28.8 mph N/A   Overcast
3:35 PM 64.4 °F - 5.2 °F 10% 30.02 in 10.0 mi WSW 17.3 mph 28.8 mph N/A   Mostly Cloudy
3:55 PM 62.1 °F - 10.2 °F 13% 30.01 in 10.0 mi WNW 19.6 mph 24.2 mph N/A   Scattered Clouds
4:15 PM 61.7 °F - 9.9 °F 13% 30.01 in 10.0 mi West 12.7 mph 21.9 mph N/A   Scattered Clouds
4:35 PM 61.7 °F - 9.5 °F 13% 30.00 in 10.0 mi West 10.4 mph 28.8 mph N/A   Scattered Clouds
4:55 PM 62.2 °F - 7.7 °F 12% 30.00 in 10.0 mi WSW 16.1 mph 24.2 mph N/A   Scattered Clouds
5:15 PM 61.2 °F - 8.1 °F 12% 30.01 in 10.0 mi West 13.8 mph 32.2 mph N/A   Scattered Clouds
5:35 PM 60.6 °F - 7.7 °F 12% 30.01 in 10.0 mi West 16.1 mph 24.2 mph N/A   Clear
5:55 PM 60.3 °F - 7.7 °F 12% 30.00 in 10.0 mi WSW 12.7 mph 24.2 mph N/A   Clear
6:15 PM 58.3 °F - 7.9 °F 13% 30.00 in 10.0 mi West 12.7 mph 23.0 mph N/A   Clear
6:35 PM 58.1 °F - 7.7 °F 13% 30.01 in 10.0 mi WNW 9.2 mph - N/A   Clear
6:55 PM 57.4 °F - 8.6 °F 14% 30.00 in 10.0 mi WNW 6.9 mph - N/A   Clear
7:15 PM 56.3 °F - 9.7 °F 16% 30.00 in 10.0 mi WNW 9.2 mph - N/A   Clear
7:35 PM 55.6 °F - 10.6 °F 17% 30.01 in 10.0 mi WNW 8.1 mph - N/A   Clear
7:55 PM 54.0 °F - 11.8 °F 19% 30.02 in 10.0 mi West 8.1 mph - N/A   Scattered Clouds
8:15 PM 53.1 °F - 12.7 °F 20% 30.03 in 10.0 mi NW 4.6 mph - N/A   Scattered Clouds
8:35 PM 53.6 °F - 12.2 °F 19% 30.03 in 10.0 mi Calm Calm - N/A   Scattered Clouds
8:55 PM 52.0 °F - 15.6 °F 24% 30.02 in 10.0 mi NNW 5.8 mph - N/A   Clear
9:15 PM 51.3 °F - 16.5 °F 25% 30.04 in 10.0 mi NNW 6.9 mph - N/A   Clear
9:35 PM 50.9 °F - 17.2 °F 26% 30.04 in 10.0 mi NNW 8.1 mph - N/A   Scattered Clouds
9:55 PM 49.6 °F - 16.2 °F 26% 30.04 in 10.0 mi NW 5.8 mph - N/A   Clear
10:15 PM 47.8 °F - 15.6 °F 28% 30.05 in 10.0 mi WSW 4.6 mph - N/A   Clear
10:35 PM 46.9 °F - 15.8 °F 29% 30.05 in 10.0 mi WSW 13.8 mph 19.6 mph N/A   Scattered Clouds
10:55 PM 49.8 °F - 18.0 °F 28% 30.05 in 10.0 mi WSW 17.3 mph 26.5 mph N/A   Clear
11:15 PM 49.5 °F - 19.9 °F 31% 30.05 in 10.0 mi WSW 15.0 mph 23.0 mph N/A   Scattered Clouds
11:35 PM 48.6 °F - 23.0 °F 37% 30.05 in 10.0 mi WSW 16.1 mph 24.2 mph N/A   Overcast